Location: Montreal
(45.5000°N, 73.5833°W)
Time: 09:50:37
(UTC-05:00)

Vanguard 1 - Pass Details

Date: 23 October 2017
Orbit: 650 x 3834 km, 34.2° (Epoch: 22 November)

Event Time Altitude Azimuth Distance (km) Brightness Sun altitude
Rises 04:30:01 0° 270° (W) 6,172 - -30.5°
Reaches altitude 10° 04:33:37 10° 266° (W) 5,510 - -29.9°
Exits shadow 04:42:39 38° 245° (WSW) 4,339 12.7 -28.4°
Maximum altitude 04:51:03 53° 197° (SSW) 4,150 12.9 -27.0°
Drops below altitude 10° 05:13:12 10° 129° (SE) 6,790 14.9 -23.1°
Sets 05:18:19 0° 125° (SE) 7,622 15.3 -22.2°
